Regional Weather Roundup
Issued by NWS

Home | Current Version | Previous Version | Graphics & Text | Print | Product List | Glossary On
Versions: 1 2 3 4 5 6 7 8 9 10 11 12 13 14 15 16 17 18 19 20 21 22 23 24 25 26 27 28 29 30 31 32 33 34 35 36 37 38 39 40 41 42 43 44 45 46 47 48 49 50
000
ASUS43 KLSX 190010
RWRMO

WEATHER SUMMARY FOR MISSOURI
NATIONAL WEATHER SERVICE SPRINGFIELD MO
600 PM CST SAT FEB 18 2017

NOTE: "FAIR" INDICATES FEW OR NO CLOUDS BELOW 12,000 FEET WITH NO
       SIGNIFICANT WEATHER AND/OR OBSTRUCTIONS TO VISIBILITY.
       CURRENT SKY AND/OR WEATHER CONDITIONS ARE NOT AVAILABLE FOR
       CHILLICOTHE AND FARMINGTON.

MOZ001>031-035>038-043-044-053-054-190100-
...NORTHERN AND WESTERN MISSOURI...

CITY           SKY/WX    TMP DP  RH WIND       PRES   REMARKS
KANSAS CTY INT PTCLDY    64  42  44 SW3       29.79R
6HR MIN TEMP:  63; 6HR MAX TEMP:  72;

KANSAS C DTWN  CLEAR     68  43  40 CALM      29.77R
6HR MIN TEMP:  64; 6HR MAX TEMP:  73;

LEE`S SUMMIT   CLEAR     68  43  40 CALM      29.79R
6HR MIN TEMP:  64; 6HR MAX TEMP:  71;

ST JOSEPH      CLEAR     62  38  40 CALM      29.79R
6HR MIN TEMP:  61; 6HR MAX TEMP:  70;

CHILLICOTHE      N/A     64  39  39 NE3       29.79R
6HR MIN TEMP:  64; 6HR MAX TEMP:  73;

KIRKSVILLE     CLEAR     63  37  38 CALM      29.79S
6HR MIN TEMP:  62; 6HR MAX TEMP:  71;


$$
MOZ066>068-077>081-088>096-101>105-190100-
...SOUTHWEST MISSOURI...

CITY           SKY/WX    TMP DP  RH WIND       PRES   REMARKS
SPRINGFIELD    CLEAR     61  48  62 SW5       29.83R
6HR MIN TEMP:  61; 6HR MAX TEMP:  67;

JOPLIN         CLEAR     60  49  66 S3        29.83R
6HR MIN TEMP:  58; 6HR MAX TEMP:  66;

BRANSON        PTCLDY    63  46  55 CALM      29.85R

$$
MOZ032>034-039>042-045>050-055>058-069>072-190100-
...CENTRAL MISSOURI...

CITY           SKY/WX    TMP DP  RH WIND       PRES   REMARKS
COLUMBIA       CLEAR     66  45  46 W5        29.80R
6HR MIN TEMP:  64; 6HR MAX TEMP:  71;

JEFFERSON CITY CLEAR     68  44  42 SW3       29.79R
6HR MIN TEMP:  62; 6HR MAX TEMP:  71;

ROLLA          PTCLDY    57  47  69 S8        29.81R
6HR MIN TEMP:  56; 6HR MAX TEMP:  63;

SEDALIA        CLEAR     67  45  45 SW7       29.81R
6HR MIN TEMP:  64; 6HR MAX TEMP:  72;

WHITEMAN AFB   CLEAR     62  44  51 SW8       29.79R
WARRENSBURG    CLEAR     64  43  45 SW6       29.79R
OSAGE BEACH    CLEAR     67  46  47 SW3       29.82R

$$
MOZ051-052-059>065-190100-
...EAST CENTRAL MISSOURI...

CITY           SKY/WX    TMP DP  RH WIND       PRES   REMARKS
ST LOUIS INTL  CLOUDY    59  47  64 S6        29.83R
6HR MIN TEMP:  59; 6HR MAX TEMP:  63; 6HR PCP: TRACE;

SPIRIT OF STL  PTCLDY    59  50  72 S6        29.82R
6HR MIN TEMP:  58; 6HR MAX TEMP:  63; 6HR PCP: TRACE;

ST CHARLES     PTCLDY    56  46  69 S8        29.81S
6HR MIN TEMP:  56; 6HR MAX TEMP:  63;


$$
MOZ072>076-082>087-097>100-106>115-190100-
...SOUTH CENTRAL AND SOUTHEAST MISSOURI...

CITY           SKY/WX    TMP DP  RH WIND       PRES   REMARKS
CAPE GIRARDEAU CLOUDY    51  49  92 SE5       29.89R
6HR MIN TEMP:  51; 6HR MAX TEMP:  55; 6HR PCP:  0.18;

FARMINGTON     CLOUDY    52  51  97 S5        29.86R
6HR MIN TEMP:  50; 6HR MAX TEMP:  53; 6HR PCP:  0.17;

POPLAR BLUFF   CLOUDY    53  53 100 CALM      29.88R
6HR MIN TEMP:  53; 6HR MAX TEMP:  55; 6HR PCP:  0.16;

WEST PLAINS    CLOUDY    56  51  84 CALM      29.87R
6HR MIN TEMP:  55; 6HR MAX TEMP:  61;


$$




USA.gov is the U.S. government's official web portal to all federal, state and local government web resources and services.